Location: Jastrz?bniki
(50.3667°N, 20.3833°E)
Time: 10:04:11
(UTC+00:00)

Cosmos 2360 Rocket - Pass Details

Date: 05 August 2024
Orbit: 834 x 843 km, 71.0° (Epoch: 10 September)

Event Time Altitude Azimuth Distance (km) Brightness Sun altitude
Exits shadow 02:28:51 - 257° (WSW) 2,856 4.4 -6.7°
Reaches altitude 10° 02:30:06 10° 264° (W) 2,465 4.1 -6.6°
Maximum altitude 02:34:44 25° 319° (NW) 1,635 3.7 -6.0°
Drops below altitude 10° 02:39:23 10° 14° (NNE) 2,471 5.4 -5.4°
Sets 02:42:17 0° 27° (NNE) 3,408 6.6 -5.0°
